OneWeb SL0286

operational
NORAD ID: 49076 Int'l Des: 2021-075 Owner: ONEWEBN Country: UK Constellation: oneweb
LEOCIRCULARPOLARONEWEB_TYPE

OneWeb SL0286について

説明を読み込み中...

リアルタイム位置

3D地球を読み込み中...

次回通過

高度履歴

Altitude vs Time

uPlot chart will show altitude changes over time

軌道要素

1 49076U 21075B 25304.78813390 .00000528 00000-0 14315-2 0 9995
2 49076 87.8967 36.0663 0001624 99.2365 260.8947 13.12443447204605
Epoch: Oct 31, 2025 • Age: 15 hours

現在のステータス

高度 1218.8 km
速度 7.24 km/s
衛星直下点 -9.77°S, 147.89°W
打ち上げ日 Aug 21, 2021
運用期間 4.1 years
タイプ internet

技術仕様

分類 Payload
質量 148.00 kg
乾燥質量 140.00 kg
総質量 148.00 kg
長さ 1.30 m
直径 1.00 m
スパン 5.00 m
形状 Trapezoid+2 pan
製造者 ONEWUS
バスタイプ ARROW
フェーズステータス In Orbit
所有者/国 ONEWEBN/UK

大規模コンステレーション

Loading constellations...